Dewpoint
66 65 65 65 65 66 65 64 64 63 62 61 61 64 65 64 65 63 64 63 62 62 60 60 62 63 61 61 62 63 64 63 62 59 58 59 61 62 63 62 61 61 60 61 60 60 60 60 60 60 60 59 59 60 59 59 59 60 60 60 60 61 60 60 60 60 60 59 59 59 59 59 59 60 60 60 60 60 60 60 60 60 60 60 59
66 66 64 64 65 66 65 66 64 62 61 62 61 63 64 64 65 64 61 63 62 62 61 61 60 62 61 62 62 62 63 62 62 61 59 60 62 62 63 63 63 63 62 61 61 61 61 60 61 60 59 60 60 59 60 60 60 60 60 60 60 61 61 61 60 61 61 60 60 60 59 59 59 59 59 60 60 60 60 59 60 60 60 60 59
67 67 66 65 66 66 65 65 64 63 62 61 61 62 63 64 65 63 64 63 62 62 60 61 62 59 62 62 62 63 63 64 63 63 61 60 62 63 61 62 62 63 64 64 62 61 60 60 61 60 60 60 60 60 61 61 61 61 61 61 61 61 61 61 61 61 60 61 61 60 60 60 59 59 59 59 59 60 60 60 60 59 59 59 60
68 68 67 66 64 65 65 65 64 63 63 61 60 62 63 64 65 65 65 64 63 62 63 61 61 61 61 63 63 63 62 63 63 64 63 61 60 61 62 61 63 63 63 64 62 61 61 61 60 60 61 61 61 61 62 62 62 62 62 62 61 62 62 62 62 61 61 61 61 60 60 60 60 60 60 59 59 59 59 59 59 59 59 59 59
69 69 66 66 65 65 65 65 65 64 65 65 62 63 63 64 65 64 64 64 64 64 60 63 63 63 63 64 64 63 63 62 63 63 61 61 61 61 63 62 63 65 64 62 62 61 61 61 60 60 61 62 62 63 63 63 63 63 63 63 63 62 62 62 62 62 62 61 61 61 60 60 60 59 59 59 59 59 59 59 59 59 59 59 58
69 68 66 66 66 65 65 65 64 66 65 65 63 63 61 62 64 63 63 63 63 64 62 63 62 63 64 64 64 64 62 63 62 62 61 61 62 63 62 62 61 62 60 62 62 62 62 61 61 62 63 63 62 63 64 64 64 64 63 64 64 64 64 63 63 62 62 62 62 62 61 61 60 60 59 59 59 59 59 58 58 59 59 59 59
69 69 67 65 65 64 64 64 65 66 65 65 63 62 62 62 61 62 62 62 62 63 62 63 62 62 63 64 63 63 64 63 63 62 62 63 63 63 64 61 62 62 60 59 63 62 62 63 63 63 63 63 62 63 63 63 63 63 64 64 64 64 64 64 64 63 63 63 62 61 61 61 60 60 60 60 60 59 59 58 58 59 60 60 60
69 69 69 67 65 64 64 65 65 65 64 65 65 63 62 62 62 62 62 61 61 62 63 62 63 63 63 64 63 63 63 63 63 63 63 63 63 64 63 61 62 61 61 60 62 64 65 64 64 63 63 63 65 64 64 64 65 64 65 64 64 64 64 64 65 64 64 63 63 62 61 61 61 61 60 60 59 59 59 59 59 59 59 60 60
68 68 69 67 65 65 64 66 66 65 64 65 64 63 64 63 63 63 63 61 60 62 63 63 63 64 63 64 64 64 64 64 64 64 64 64 64 64 62 61 63 61 64 61 64 63 66 65 65 65 65 65 64 63 63 64 64 63 65 64 64 64 64 64 64 65 64 64 63 63 62 62 62 61 60 59 59 59 59 59 60 60 60 61 61
67 68 69 68 66 67 67 66 66 66 65 65 64 64 66 65 64 64 63 63 60 62 63 63 63 63 63 63 64 63 65 66 65 63 63 63 64 64 62 64 64 63 62 62 66 66 65 65 66 66 67 66 65 64 64 64 64 64 64 65 64 64 64 64 64 64 64 64 64 63 63 63 62 61 61 60 59 59 59 59 59 60 61 62 62
69 69 68 68 68 68 68 67 67 66 66 65 64 64 67 66 66 65 65 65 61 64 63 62 63 63 63 64 64 67 66 65 64 63 63 64 64 64 64 64 64 63 63 62 62 63 66 67 66 66 65 66 64 64 63 62 64 64 65 65 64 64 64 64 64 62 62 63 63 64 63 63 62 62 62 61 59 59 59 59 61 62 62 62 62
68 68 68 69 68 68 68 68 67 66 65 64 62 63 66 67 67 66 65 64 63 64 64 64 63 65 64 65 66 66 65 66 65 64 64 65 64 63 63 64 63 63 63 63 63 63 63 65 65 66 66 65 65 65 63 63 63 64 64 64 64 64 63 63 62 61 62 62 63 64 63 63 63 63 62 60 59 59 60 62 62 61 61 61 61
67 68 68 68 68 68 68 68 67 66 65 65 65 63 66 67 67 65 65 63 63 65 65 64 63 63 64 65 65 66 66 66 65 64 64 64 63 62 63 63 63 63 63 64 64 64 63 64 64 64 63 66 66 65 65 64 64 63 63 64 63 63 62 61 60 61 61 61 61 63 63 63 63 62 61 60 60 60 60 62 62 61 61 61 62
68 67 68 68 66 68 68 68 67 66 67 67 67 65 65 66 66 66 64 63 63 63 64 64 62 60 60 61 62 63 64 64 64 64 64 64 64 64 64 64 63 63 63 64 64 62 62 64 64 62 62 63 66 66 65 65 64 63 64 64 62 60 59 59 60 60 61 61 61 62 63 63 63 62 62 61 60 60 62 62 61 61 60 61 62
68 67 66 67 67 68 66 68 68 68 68 67 66 66 65 65 66 64 63 64 63 64 64 65 60 61 63 59 57 58 62 63 65 65 64 65 64 64 64 64 64 63 63 63 62 61 61 63 61 61 62 63 64 65 65 65 64 64 64 63 60 59 60 60 60 59 60 62 63 63 63 63 63 62 60 60 61 62 62 61 61 61 60 60 61
67 67 65 67 67 68 67 68 67 68 67 66 65 66 66 66 67 66 65 62 62 63 65 65 65 60 56 57 60 58 56 59 61 63 65 65 65 64 63 63 63 64 63 62 62 62 62 62 60 61 62 63 64 65 66 64 63 64 63 63 62 60 60 59 60 64 64 63 63 64 63 63 62 60 61 62 62 62 62 61 61 60 60 59 59
66 66 67 67 66 67 67 67 68 68 67 67 67 66 65 67 66 67 64 63 61 63 64 66 66 66 58 57 56 56 56 58 60 60 62 64 65 65 64 63 63 63 62 63 63 63 63 60 62 63 63 63 63 66 66 62 61 61 61 61 61 59 61 63 63 63 64 64 64 64 64 62 61 62 63 62 62 61 60 60 60 59 59 59 58
67 67 67 68 67 67 66 67 68 68 68 68 68 66 67 68 67 66 65 64 62 63 63 65 65 64 65 60 63 59 55 58 59 56 61 63 64 64 63 63 64 62 63 63 60 60 62 62 64 64 63 63 63 66 63 61 59 60 58 59 62 61 60 62 63 64 65 64 64 64 63 63 63 63 62 62 61 60 59 59 59 59 58 57 58
66 66 67 66 67 67 67 67 66 68 68 69 68 67 65 65 66 66 65 67 66 63 62 63 64 64 63 64 64 62 60 59 56 56 57 58 60 62 61 62 62 62 61 60 60 61 62 62 63 61 61 64 62 63 62 59 61 62 63 61 60 58 58 59 64 63 64 65 65 64 63 63 63 63 62 61 60 59 59 58 57 57 57 57 57
66 65 66 66 66 66 66 66 67 66 67 68 67 67 66 66 67 66 66 65 66 64 63 62 62 62 63 64 64 63 61 61 59 56 55 55 57 61 62 62 62 63 61 60 60 61 63 62 60 60 61 62 63 62 59 55 54 55 58 60 59 59 58 58 60 61 63 64 65 64 64 63 62 61 60 60 59 57 56 56 57 57 57 57 57
66 66 66 66 66 67 66 66 67 67 66 66 66 67 67 67 66 66 64 67 65 65 64 63 63 61 62 63 63 61 60 61 61 58 56 55 55 56 59 62 62 61 62 60 60 62 62 62 59 58 61 62 61 59 55 56 56 57 57 58 59 58 58 57 57 57 58 63 63 63 63 62 62 61 60 58 57 56 56 57 57 57 57 56 57
66 66 66 66 66 65 66 66 67 67 68 66 65 66 66 66 65 67 67 67 68 65 64 66 64 62 62 62 62 61 61 60 60 59 58 58 54 53 57 59 57 60 62 62 62 62 61 60 61 58 59 61 60 56 56 54 54 52 56 58 59 58 58 57 54 57 58 60 63 62 62 61 60 60 59 57 56 56 56 56 56 57 57 57 56
66 66 66 65 66 65 66 66 67 66 67 67 66 66 67 66 66 66 66 67 66 65 63 65 64 65 62 61 61 61 60 60 60 59 58 58 55 55 56 55 54 58 62 60 60 61 60 60 60 59 61 61 58 55 56 54 53 56 58 58 58 58 57 55 53 54 57 61 61 61 59 58 58 59 58 56 56 56 56 56 56 56 56 55 55
66 66 66 65 65 65 65 66 66 66 65 67 66 67 67 66 66 66 66 66 65 65 64 65 64 63 65 62 60 61 61 60 58 59 58 57 57 55 54 55 53 54 55 59 59 58 59 57 60 59 59 59 56 56 55 51 53 58 57 58 58 58 58 57 54 53 53 56 58 60 58 58 58 58 57 55 55 56 56 55 56 55 54 55 54
65 64 66 65 64 65 65 66 65 65 65 65 66 65 66 66 65 65 66 64 64 65 64 63 63 63 62 61 60 60 60 61 61 59 59 58 57 55 54 54 54 54 54 56 57 56 56 57 58 58 58 57 54 54 54 52 51 56 56 58 57 57 57 59 58 55 54 53 56 58 59 58 58 58 57 56 57 57 57 58 56 55 57 56 54
64 64 65 65 65 65 65 65 65 65 65 66 65 66 66 66 65 65 64 64 65 65 65 64 65 65 64 61 62 60 61 61 63 61 59 58 56 56 55 54 55 52 54 54 54 54 57 57 58 58 58 57 56 56 57 53 53 57 57 55 59 55 56 58 60 57 55 54 54 56 57 59 59 57 57 57 58 59 56 53 53 53 52 52 54
63 64 65 65 65 64 65 65 65 65 65 66 66 65 66 65 64 64 64 65 64 65 64 64 64 64 64 62 62 62 61 61 60 59 57 58 57 58 56 55 55 55 53 53 54 54 54 57 57 57 58 60 59 57 56 55 55 57 57 58 57 55 55 57 59 58 55 53 52 52 54 56 56 57 57 56 54 53 54 55 54 52 52 53 55
65 65 65 65 65 64 65 65 64 65 65 66 65 66 64 65 65 65 64 64 64 65 64 65 65 65 64 64 64 61 62 60 60 60 60 59 59 58 57 55 53 52 53 53 53 53 54 56 57 57 58 58 57 58 57 54 54 56 57 57 58 57 54 55 58 59 56 55 54 52 53 53 53 54 53 53 54 55 56 56 54 53 52 54 56
65 65 65 65 64 64 63 64 64 64 64 64 65 66 66 66 65 64 64 64 64 63 63 64 65 64 64 66 66 65 65 65 61 60 61 61 59 59 57 56 55 52 52 52 54 54 54 55 56 56 57 58 58 57 56 53 55 54 50 55 57 57 55 54 55 55 55 54 54 53 53 53 53 54 55 55 57 57 56 54 54 53 53 56 56
65 64 65 64 64 63 63 63 64 64 64 64 64 64 65 65 64 64 64 65 64 64 65 63 65 64 64 65 65 64 65 64 61 61 61 61 60 59 58 57 57 54 53 51 53 55 55 56 55 54 56 56 56 56 55 54 55 52 46 50 54 55 54 54 54 52 52 53 51 50 50 52 54 55 56 56 56 56 54 53 53 53 54 55 54
64 64 64 64 64 63 63 63 63 64 64 64 64 64 64 64 64 65 66 65 65 65 64 64 63 64 64 65 65 65 64 64 63 63 61 61 60 59 59 59 58 59 57 53 52 56 56 56 55 54 54 54 53 55 54 53 54 53 51 52 47 54 54 54 53 52 51 52 49 50 51 52 52 54 55 56 56 55 54 54 54 54 55 55 55
63 64 63 63 63 63 63 63 63 64 63 64 64 64 64 64 64 64 65 64 64 62 62 64 63 64 64 64 64 64 64 64 63 63 61 61 61 59 59 59 59 60 59 56 54 56 57 57 55 55 55 56 53 52 54 52 54 54 51 50 54 56 53 51 52 51 52 51 50 51 55 54 52 54 55 56 55 56 56 55 55 55 55 53 53
63 63 63 63 62 63 62 62 62 63 63 63 64 64 63 63 64 64 63 63 63 62 62 63 63 63 63 62 62 63 64 64 65 61 60 60 61 60 60 59 58 60 59 59 55 55 58 58 57 54 55 56 53 52 50 53 55 54 51 49 53 51 45 48 53 50 50 50 49 49 50 50 49 53 53 52 54 54 54 52 52 53 52 51 51
64 62 63 63 63 63 62 62 62 62 62 63 63 63 62 63 63 64 63 64 62 62 63 62 62 62 63 62 62 63 62 62 63 59 59 59 59 59 58 59 57 59 60 57 58 55 55 56 55 54 54 56 53 52 52 54 53 52 44 48 49 45 41 45 46 53 49 49 48 48 49 49 48 49 49 48 49 49 50 50 48 48 50 48 47
63 62 63 63 63 62 62 62 62 62 62 62 63 63 63 62 62 63 63 63 63 62 62 62 61 61 61 62 62 63 64 63 64 61 60 59 58 57 58 58 58 59 57 57 56 55 55 53 55 53 55 55 55 51 50 52 52 48 44 43 45 41 39 44 42 43 48 48 48 48 48 48 48 47 47 47 47 47 48 48 48 47 46 46 45
62 63 62 62 62 62 62 62 62 62 62 63 62 62 62 62 62 63 63 63 63 63 62 61 61 61 61 62 62 62 62 61 61 65 62 59 59 58 59 60 60 58 60 60 58 56 55 52 53 49 51 56 54 52 48 50 50 48 44 42 41 39 37 38 40 37 48 48 48 47 47 47 46 46 46 45 46 46 46 46 47 46 46 46 45
62 62 62 62 62 62 62 62 62 62 63 62 62 62 62 62 62 62 62 62 62 62 62 62 62 61 62 62 62 61 63 62 63 62 59 61 59 60 61 59 58 59 60 60 58 57 57 54 54 52 52 54 53 52 47 46 48 47 45 44 42 39 39 37 35 34 49 48 47 47 46 46 45 45 44 45 45 45 44 44 44 45 46 46 46
61 62 62 62 62 61 61 61 61 62 62 62 61 61 61 62 62 63 63 63 64 61 61 62 61 61 62 62 62 62 60 61 61 63 60 62 61 61 61 61 58 58 61 60 60 58 56 58 54 51 51 52 52 51 46 45 44 42 43 44 44 41 39 41 38 34 40 43 46 47 47 45 45 44 44 44 43 43 43 43 43 44 44 44 44
60 61 61 61 61 62 61 62 62 62 62 62 62 62 62 62 62 62 63 62 62 62 62 61 62 62 62 62 62 62 61 62 62 63 61 63 63 62 62 62 59 58 60 60 58 58 58 57 53 53 50 50 51 48 43 44 44 42 45 45 45 41 44 43 42 38 39 39 40 41 41 41 41 41 43 43 43 43 43 42 43 43 43 43 42
60 60 60 61 61 61 61 61 62 62 62 61 61 62 62 62 62 62 62 62 62 62 63 62 62 62 63 63 63 61 61 62 61 61 62 61 63 63 62 61 61 59 59 59 60 58 57 57 54 52 51 48 48 48 41 43 43 43 41 44 44 44 46 47 46 43 42 42 42 38 41 42 42 43 43 43 43 43 43 43 44 43 44 43 42
61 60 60 61 60 61 61 61 61 62 63 62 61 62 61 61 62 62 61 61 62 61 61 62 62 62 62 64 63 63 63 62 59 56 58 59 61 61 61 62 60 59 59 57 57 57 57 56 54 54 52 49 48 49 45 45 45 44 46 47 46 45 44 47 45 43 40 42 41 37 37 42 36 38 36 38 41 45 43 44 44 45 44 43 42
59 60 60 60 60 61 61 60 61 62 61 61 60 56 56 62 63 61 62 62 61 61 61 61 61 61 62 63 63 61 58 58 57 54 54 54 55 60 62 62 62 60 59 58 56 58 57 56 56 58 54 51 48 51 49 50 51 50 49 49 47 44 45 45 46 45 42 42 41 40 35 39 43 40 39 40 41 49 46 47 44 44 45 43 43
56 58 60 60 60 60 61 60 60 61 62 60 54 51 50 53 60 62 61 61 62 62 61 60 60 61 61 62 62 61 60 58 57 50 50 49 51 53 52 53 55 66 60 59 61 57 56 58 56 55 52 52 52 52 52 52 54 53 51 51 48 45 43 41 38 45 47 45 44 42 42 44 45 41 40 41 45 51 50 50 44 45 44 44 44
54 55 57 58 60 60 61 60 61 61 62 57 50 49 50 49 54 62 62 62 62 61 61 60 60 61 61 61 62 61 61 62 61 59 53 47 46 45 46 46 46 46 45 58 61 62 59 57 55 55 54 53 54 54 53 53 52 52 51 50 48 44 44 40 39 44 50 49 47 46 46 49 49 46 46 44 45 53 47 47 44 44 44 43 43
52 52 52 53 54 57 59 59 60 61 62 52 47 48 48 47 49 56 62 62 61 60 60 60 60 60 60 61 61 61 61 60 62 60 59 55 44 42 43 45 44 45 43 43 44 59 59 60 58 59 57 55 53 53 53 51 51 50 49 47 48 46 45 42 40 46 50 52 49 48 45 48 51 49 50 54 55 56 51 45 44 44 44 43 43
49 49 50 51 51 51 52 54 57 58 55 42 39 43 46 46 47 53 62 61 61 60 60 61 61 61 61 61 60 60 60 60 60 60 59 59 57 57 58 59 58 52 45 47 47 45 51 59 59 58 57 57 56 56 55 54 53 53 52 50 51 47 47 45 49 53 53 49 49 49 49 50 52 52 51 52 54 55 53 47 44 44 44 43 43
47 47 48 48 48 49 50 51 52 51 48 39 40 41 42 44 45 50 61 61 61 60 60 61 61 61 62 61 60 60 60 60 59 59 59 59 59 59 58 58 56 54 55 57 58 59 59 59 59 59 58 58 59 58 57 55 58 57 58 58 53 50 50 54 53 54 53 53 56 54 50 59 54 52 52 53 54 53 51 44 44 44 44 44 43
46 46 47 46 47 47 47 48 49 48 46 38 38 41 42 42 43 59 61 61 61 59 60 60 60 60 60 59 59 60 60 60 54 50 53 58 58 57 57 55 52 51 48 43 40 42 54 58 57 56 53 51 47 54 54 58 56 58 56 56 54 52 51 47 50 52 53 54 55 53 52 51 54 51 50 51 52 50 51 51 43 44 44 44 43
45 45 45 45 45 45 45 45 45 46 45 40 38 38 40 40 46 60 59 60 57 57 56 56 56 57 57 58 59 59 60 59 49 46 47 50 57 56 55 54 52 51 49 47 41 40 40 40 39 39 40 40 41 41 41 42 52 57 54 50 50 50 50 50 53 52 51 52 55 53 53 49 50 49 48 47 47 47 46 48 52 44 44 44 44
44 44 43 43 43 43 44 44 44 44 43 41 38 38 39 38 44 57 59 56 54 54 53 53 53 52 50 48 54 58 57 55 41 42 44 52 55 55 54 52 51 50 49 49 48 46 41 40 40 40 41 41 42 42 42 43 44 50 57 54 55 51 51 51 55 51 51 49 48 51 49 46 49 46 46 47 45 45 47 47 48 50 43 43 43
44 44 44 44 45 44 44 44 43 44 44 42 38 38 38 39 45 55 57 57 52 51 49 49 51 51 50 46 44 50 53 47 40 41 42 50 55 54 53 52 51 50 50 50 49 49 49 49 49 50 49 47 49 49 49 43 45 48 52 53 53 51 48 48 48 49 48 47 47 50 50 45 46 46 43 40 37 40 46 46 45 45 45 44 44